Theta_e
321 321 322 322 323 323 323 323 324 324 324 324 325 325 325 325 325 325 325 326 326 326 326 326 326 326 326 327 328 327 321 304 304 303 302 305 313 328 333 339 334 335 327 308 306 305 303 301 302 301 302 302 301 301 300 305 300 301 293 286 284 285 285 287 289 290 293 293 294 293 293 294 293 292 297 296 296 294 293 294 295 296 294 295 294 296 299 300
320 321 321 321 322 322 322 322 323 323 324 324 324 325 325 325 324 325 325 325 325 325 325 326 326 326 327 326 327 326 312 307 304 303 304 315 332 338 336 337 336 334 320 309 307 301 301 301 300 301 301 300 302 300 303 301 304 296 288 285 287 285 290 293 291 291 292 292 291 292 291 292 295 294 295 295 291 292 294 293 293 295 297 295 295 297 298 299
320 320 320 321 321 322 322 322 323 323 323 323 324 324 324 324 324 324 324 324 325 324 325 326 326 326 326 327 326 325 312 308 304 304 308 329 337 336 338 337 334 329 309 308 306 302 301 300 299 300 299 298 298 298 300 299 303 296 292 288 287 289 290 291 293 295 292 294 295 293 291 291 292 294 295 294 295 291 292 292 293 294 298 298 295 296 297 298
320 320 320 320 321 321 321 322 322 323 323 323 323 323 323 323 323 324 324 324 324 324 324 325 325 326 326 326 327 316 306 298 295 299 304 322 333 340 339 337 335 325 309 307 305 301 299 300 299 299 298 298 293 300 299 299 299 295 293 289 291 290 292 296 294 295 296 294 293 292 291 291 290 292 293 291 292 294 295 294 297 296 297 299 294 295 296 297
320 320 320 319 320 321 321 321 322 322 322 323 323 323 323 322 323 323 324 324 324 324 324 325 325 326 326 326 323 309 301 290 298 300 304 333 337 336 338 335 332 311 305 303 302 299 298 298 298 298 297 293 294 297 297 297 297 295 297 297 294 291 292 297 294 292 292 290 291 290 291 295 293 292 292 293 293 296 295 294 296 299 299 297 294 295 296 296
320 320 320 320 320 320 321 321 322 322 322 322 323 322 322 322 323 323 323 323 323 324 324 325 325 325 325 325 308 305 297 288 299 306 329 335 335 339 337 334 329 308 304 304 302 298 301 299 298 296 295 294 292 294 291 298 298 294 294 295 296 295 295 296 296 292 291 293 292 292 293 292 292 294 290 292 295 300 301 295 295 297 299 299 297 295 295 295
320 320 320 320 320 320 320 321 321 322 322 322 322 322 322 323 323 322 322 323 323 324 324 325 325 325 324 321 304 297 296 295 299 306 328 334 335 334 336 332 323 309 304 302 299 300 297 297 298 293 292 292 291 292 294 295 298 296 295 291 295 295 296 298 298 295 293 292 295 293 290 292 292 293 291 292 298 299 300 296 295 295 295 296 295 295 296 296
320 320 320 320 320 320 320 321 321 321 322 322 322 322 322 322 322 322 322 323 323 323 324 324 324 324 322 308 306 297 296 297 300 310 328 331 326 327 321 311 309 306 306 303 299 298 296 296 296 294 294 294 291 294 294 294 296 295 295 293 295 295 295 296 294 292 292 292 292 290 291 295 293 294 291 295 298 299 299 296 296 294 292 293 295 295 296 296
321 321 320 320 320 319 320 320 321 321 321 321 322 322 323 322 322 322 322 322 322 322 323 324 323 324 322 302 298 297 295 302 304 306 317 317 312 309 305 306 307 306 302 299 298 298 299 295 296 296 294 292 293 294 292 294 292 294 297 294 292 293 293 293 292 290 290 292 291 292 294 295 294 292 292 297 300 300 298 296 296 294 292 293 295 296 296 296
321 321 320 320 320 320 319 319 320 320 321 321 322 322 322 322 322 322 322 322 322 322 322 323 323 323 307 301 297 293 298 302 307 308 313 311 309 308 305 303 308 301 300 299 296 297 298 294 299 297 298 295 294 294 292 293 291 291 292 292 293 294 292 292 292 292 289 289 288 293 294 296 292 293 294 299 297 296 295 293 292 292 293 294 294 295 296 296
321 321 321 320 320 320 319 319 319 320 320 321 321 322 322 322 322 322 322 321 322 322 322 322 325 316 304 299 295 293 302 307 305 308 310 307 307 305 304 302 305 302 298 297 297 297 297 296 298 297 300 294 294 292 293 293 292 293 292 291 292 291 292 293 291 292 292 294 291 294 293 294 289 291 294 299 297 293 295 293 290 290 293 294 293 294 295 296
321 321 320 320 319 319 319 319 319 320 320 320 321 321 321 321 321 321 321 321 321 322 322 322 323 312 303 298 295 297 304 308 304 307 308 305 304 303 303 301 303 302 299 296 297 299 299 298 299 299 293 297 291 293 291 291 294 292 292 292 292 290 292 296 293 293 290 294 289 291 290 290 289 289 296 298 299 295 293 295 295 292 292 293 293 293 293 295
321 321 320 320 319 319 319 319 320 320 320 320 320 321 321 321 321 321 321 321 321 322 322 324 318 311 303 295 299 303 305 302 302 304 305 304 302 301 300 299 302 298 300 298 299 303 299 299 301 297 295 297 290 293 293 293 292 292 290 288 291 290 289 295 290 289 290 291 289 291 285 284 291 294 296 297 296 293 292 294 296 295 293 293 292 293 294 294
321 321 320 320 320 318 318 319 319 320 320 320 320 320 321 321 321 321 321 321 322 321 321 323 309 306 298 294 298 306 305 301 302 304 303 305 304 304 304 303 300 300 303 301 301 301 299 298 300 298 296 296 294 295 294 289 289 290 287 289 286 284 286 292 292 289 290 289 290 292 287 288 292 295 296 295 293 292 294 295 295 296 295 294 293 293 294 295
321 321 321 321 319 318 318 319 319 320 320 320 320 320 320 320 321 321 321 321 322 322 323 316 307 299 293 297 302 305 319 303 305 303 303 304 302 302 302 304 302 300 300 299 301 301 299 299 299 298 294 294 295 293 288 284 283 285 287 283 280 284 285 292 293 289 291 289 288 291 285 289 292 295 298 294 292 290 292 294 294 294 294 295 294 293 293 295
322 321 321 319 318 318 318 318 318 319 319 320 320 320 320 320 320 321 321 320 322 320 316 306 306 297 292 291 301 314 305 303 302 303 303 306 303 303 301 302 299 299 301 299 299 298 297 299 296 292 293 293 293 282 281 284 285 281 286 282 285 282 283 286 294 288 292 290 289 292 289 286 287 293 295 293 293 290 291 292 293 294 294 294 294 294 294 294
321 320 319 318 318 318 318 318 318 318 319 320 320 320 320 320 321 321 322 320 317 318 310 302 305 303 292 297 306 300 299 302 304 304 304 303 303 301 300 299 299 297 297 298 298 299 295 297 294 293 288 291 285 285 285 281 282 284 282 283 282 284 285 284 286 292 286 290 287 289 287 290 293 294 295 295 291 289 288 291 293 293 293 293 293 293 293 293
320 319 318 318 318 318 317 317 318 319 319 320 319 319 317 320 322 318 313 311 311 313 309 309 300 296 296 300 295 298 303 301 304 302 300 300 301 299 296 296 294 295 296 294 296 295 294 293 290 289 287 288 287 285 283 281 284 283 281 281 283 282 284 287 284 286 287 287 287 286 287 288 291 293 293 295 295 290 290 292 293 293 292 293 293 293 293 294
319 318 318 318 318 317 318 318 318 319 319 319 320 318 317 317 305 305 309 305 298 295 292 292 292 289 287 295 299 297 303 306 302 304 301 304 302 297 298 295 296 297 293 291 291 293 289 290 290 290 287 288 287 288 287 288 288 286 285 286 282 283 284 283 288 291 290 289 285 285 288 290 291 292 293 295 296 294 294 295 294 293 293 294 295 295 295 296
319 319 318 318 318 318 318 318 319 319 320 316 309 304 298 296 291 299 297 300 298 293 293 293 300 294 295 295 298 301 305 304 303 301 302 304 304 299 297 295 293 292 290 290 291 290 292 287 286 286 290 291 289 289 291 291 290 286 284 283 284 284 285 287 289 291 289 286 287 288 289 289 290 291 293 295 295 295 294 294 294 295 295 295 295 296 296 296
320 320 319 319 319 318 318 318 319 319 319 311 302 296 291 293 290 288 292 294 300 299 297 296 299 299 297 299 299 302 301 299 298 301 303 303 299 301 296 294 292 290 289 288 290 292 291 287 286 291 293 293 290 290 291 289 287 287 286 283 285 283 285 289 290 290 288 286 283 285 288 289 290 292 293 294 293 293 295 295 295 295 295 296 296 296 297 298
320 320 320 320 319 318 318 318 319 319 318 300 299 296 295 295 296 296 292 290 293 295 295 297 297 297 300 300 299 300 299 297 297 300 305 304 299 298 294 293 289 291 287 288 289 287 285 285 289 292 294 290 288 287 286 288 287 285 286 285 283 284 287 289 290 292 288 285 286 287 287 288 290 291 293 293 294 295 296 296 297 296 296 296 297 297 297 297
320 320 321 320 319 318 318 319 318 318 304 301 298 296 296 299 298 298 297 290 291 295 295 294 293 295 297 300 298 299 297 295 295 297 302 302 296 296 292 292 290 287 287 288 289 285 283 285 290 293 291 289 288 286 285 285 284 283 284 281 283 286 283 285 284 285 285 288 285 284 286 288 290 292 292 294 295 295 296 296 297 297 296 297 297 298 298 297
320 320 320 320 319 318 318 318 318 308 302 298 298 300 300 297 297 300 297 290 289 293 295 295 295 293 295 296 299 300 297 294 294 294 301 300 297 292 293 291 287 287 289 289 290 289 289 289 291 290 289 288 288 287 285 284 286 285 286 284 285 286 287 286 285 284 285 286 283 285 287 288 289 289 289 292 294 293 294 295 295 296 296 297 298 297 297 297
319 319 319 319 319 319 318 319 305 303 302 300 299 299 297 296 298 299 295 289 287 290 296 295 296 295 295 300 300 296 295 295 294 295 299 300 292 292 290 290 287 288 290 290 288 286 287 290 289 288 288 286 286 285 285 286 285 285 284 287 288 289 287 286 286 284 280 281 279 283 283 286 284 288 289 291 288 289 292 292 293 294 295 296 294 295 296 297
319 319 319 319 319 319 319 308 301 304 303 301 301 301 296 296 296 298 291 284 282 286 292 292 298 295 301 294 298 295 294 291 293 294 299 298 299 295 291 290 290 289 288 287 288 286 288 291 290 289 287 286 284 285 286 287 287 284 284 287 289 288 286 285 284 283 277 277 283 282 280 281 284 283 287 286 287 289 290 289 292 294 294 294 294 295 295 296
320 319 319 320 320 319 310 303 306 305 303 301 302 299 297 298 297 298 290 283 283 289 289 294 296 294 299 295 295 294 288 286 296 296 297 298 298 295 290 287 288 287 288 286 283 284 286 286 286 287 286 285 284 283 288 288 286 283 283 284 285 285 284 284 283 284 282 280 283 284 283 279 283 284 288 288 288 288 289 290 291 293 294 293 293 294 295 296
320 320 320 320 320 318 309 307 307 306 306 304 301 299 298 298 297 297 288 278 275 291 291 290 294 300 300 296 296 291 290 291 289 294 294 295 296 294 291 287 289 287 287 287 283 286 287 285 284 284 284 283 285 289 286 289 287 282 286 284 284 285 284 282 283 282 280 280 280 281 282 279 280 285 285 286 284 287 288 290 292 294 294 295 295 295 295 295
320 320 319 319 320 320 313 311 308 307 307 303 302 300 301 300 295 287 282 278 289 288 301 293 302 297 293 295 293 287 291 288 288 290 292 295 296 292 288 287 287 286 285 288 288 287 285 287 285 288 285 284 287 287 286 289 286 284 284 283 282 282 281 282 280 282 280 278 279 280 282 278 282 288 283 283 285 285 288 291 292 293 293 294 295 295 295 295
320 320 320 319 318 315 311 311 309 310 306 305 304 303 302 300 296 288 283 278 292 285 293 293 294 290 289 289 289 288 290 288 288 290 291 292 293 293 292 290 289 288 288 287 286 286 286 289 288 287 286 288 285 284 284 287 286 285 284 285 282 281 278 277 277 278 281 277 281 282 283 283 280 283 284 283 286 287 290 288 289 291 292 294 294 294 296 296
319 320 320 318 313 314 312 308 312 310 307 306 305 303 301 296 291 285 282 290 294 292 293 291 289 291 289 288 286 288 289 286 289 289 290 291 291 288 288 290 287 282 280 282 285 288 287 287 287 286 288 285 285 285 283 283 283 286 287 279 282 283 277 276 270 276 275 277 281 283 282 284 279 280 282 283 284 283 288 288 289 289 291 293 293 294 294 294
315 318 320 317 316 317 312 311 311 310 308 308 308 304 302 291 291 283 286 297 289 290 288 287 287 286 287 288 286 286 286 288 287 288 287 285 285 286 286 286 285 281 279 278 283 281 283 286 287 289 288 291 285 286 284 282 286 285 281 284 280 274 272 271 270 271 271 278 278 280 282 279 281 287 283 284 288 285 285 289 290 290 289 290 292 294 294 293
315 315 317 318 316 314 315 311 311 310 310 309 306 304 295 288 283 289 288 291 291 292 290 291 289 290 287 287 286 285 287 287 287 287 286 284 284 286 284 286 284 287 284 281 280 280 283 281 284 287 289 289 290 285 282 283 283 284 283 281 278 273 271 267 265 265 270 277 277 280 281 282 286 286 289 291 293 294 290 288 289 290 292 293 294 293 293 293
314 315 314 315 317 317 313 311 311 311 309 307 303 298 291 284 285 294 289 291 294 292 293 291 289 288 289 290 286 287 288 288 287 287 288 284 284 282 284 286 284 286 286 281 282 279 278 283 284 286 285 288 291 291 289 289 284 286 285 286 284 281 273 269 273 278 279 281 277 277 277 275 275 282 283 292 290 287 286 289 289 288 289 289 289 290 291 292
314 315 315 315 315 317 312 311 311 312 309 305 299 294 286 286 289 285 284 285 288 290 294 292 290 289 289 289 288 289 292 291 289 286 286 285 283 280 282 285 287 286 283 284 283 277 283 284 284 289 287 289 289 292 290 283 283 283 282 282 280 282 282 282 283 281 282 280 276 273 278 277 284 287 286 284 286 288 287 288 287 289 289 288 290 290 291 292
313 312 315 312 312 315 314 311 311 312 309 302 292 287 287 290 286 288 290 293 291 291 290 293 289 287 284 283 285 287 292 290 288 288 286 285 283 282 282 283 286 289 287 285 285 282 283 280 285 287 285 287 287 286 289 289 280 281 284 281 285 284 285 283 283 281 277 276 279 281 279 283 284 291 291 291 291 290 290 289 286 286 286 286 288 289 289 290
307 312 308 311 312 314 314 311 312 309 307 301 292 287 292 290 293 289 296 293 292 291 289 288 289 290 286 284 284 283 288 290 287 286 285 286 285 285 283 284 287 289 292 291 285 289 285 287 288 285 286 287 283 285 286 285 287 283 280 284 286 285 284 283 277 277 279 278 280 286 283 284 282 282 284 283 283 286 285 283 283 284 284 285 289 289 290 291
305 308 309 310 313 314 313 312 310 307 304 297 291 294 293 292 294 295 293 294 296 294 291 288 291 293 287 286 286 286 289 288 287 286 282 286 286 288 284 285 289 290 291 292 288 287 290 283 289 287 287 287 286 288 287 287 287 286 284 287 285 279 278 280 273 275 276 276 279 282 284 284 286 286 287 285 286 286 288 283 283 286 286 288 289 291 291 290
304 305 299 306 314 314 311 312 310 304 297 291 290 291 295 296 294 293 296 296 296 294 292 293 291 293 292 287 289 289 290 287 288 285 286 288 286 291 290 291 291 290 291 292 288 287 288 284 286 289 287 288 285 286 281 284 287 286 288 286 286 283 282 278 282 277 280 278 279 279 284 282 289 289 289 286 288 289 287 283 283 286 288 289 291 293 295 295
299 298 296 306 310 313 312 312 305 301 296 289 292 293 294 290 293 294 294 299 295 294 291 293 293 292 292 292 293 291 289 290 289 289 290 290 291 297 292 294 291 291 290 292 290 291 285 287 281 288 286 287 282 285 284 287 283 284 284 284 285 284 285 284 283 280 281 279 279 279 278 284 290 292 289 287 286 287 285 286 287 289 290 292 293 294 293 293
303 298 298 311 312 312 312 307 298 293 292 295 297 295 296 294 293 293 296 297 296 298 295 292 291 292 291 289 291 291 288 289 290 290 288 290 293 288 294 295 293 292 291 289 288 287 285 285 283 286 287 287 288 287 287 286 288 285 286 284 286 284 282 280 278 286 281 281 278 279 277 285 291 294 296 293 285 285 284 286 288 290 291 291 291 290 292 292
298 290 297 311 312 312 306 296 295 296 293 292 293 296 294 302 297 295 293 295 295 294 295 294 292 292 291 292 293 290 287 286 289 289 289 291 294 294 294 294 293 291 290 286 287 289 289 285 285 284 287 289 292 292 286 286 285 284 286 284 287 284 284 281 277 281 285 284 285 283 281 282 295 295 296 296 293 288 286 286 289 291 291 289 291 290 290 290
295 293 304 308 313 310 302 294 297 294 293 294 297 296 295 294 292 293 294 293 293 295 293 292 293 292 293 293 291 292 293 288 289 289 289 289 293 296 297 293 293 292 294 287 291 288 292 282 279 284 287 288 290 292 289 287 288 286 286 287 286 284 285 284 284 284 282 283 282 282 279 283 294 296 296 296 295 296 296 295 294 292 290 290 290 291 292 293
294 294 298 308 311 308 298 288 289 291 293 296 296 296 297 295 294 293 293 293 294 292 294 292 291 295 293 293 292 291 293 286 290 292 290 291 290 296 296 294 294 292 293 287 291 290 287 285 284 281 281 283 285 285 287 285 285 285 287 288 287 288 286 285 285 285 281 282 283 280 275 282 291 293 293 293 293 294 295 296 296 295 296 295 291 291 292 292
293 296 296 299 307 303 293 297 294 291 292 293 294 293 294 295 295 297 297 294 296 294 292 290 294 292 291 292 292 292 291 291 287 289 291 288 290 289 292 294 294 293 295 293 295 292 289 288 284 280 278 276 276 277 279 282 284 286 285 288 288 286 285 285 281 284 280 283 284 280 280 286 292 293 292 293 293 294 295 296 297 297 296 295 295 294 291 289
287 282 289 294 301 300 298 300 297 293 290 290 290 293 295 293 295 294 296 296 298 295 296 293 290 290 289 289 288 288 289 291 289 285 288 284 286 286 286 288 290 291 292 294 292 292 282 283 288 286 284 281 283 285 286 285 284 283 281 284 286 288 288 287 286 283 281 284 283 284 286 285 288 289 291 292 293 293 294 295 296 297 297 298 297 292 289 288
289 284 286 283 295 295 293 297 294 295 290 295 287 291 290 292 294 294 296 290 294 296 293 293 291 290 288 289 288 288 290 289 289 289 287 288 286 284 286 287 288 289 292 291 289 285 283 283 286 286 286 287 288 288 290 290 286 287 286 286 286 284 285 284 283 281 286 283 279 286 287 285 286 289 290 291 293 293 294 294 295 296 297 295 289 287 288 287
282 285 289 291 287 284 288 288 292 291 293 294 290 291 289 288 288 288 291 292 292 292 289 288 292 293 292 290 289 286 288 288 287 286 287 282 282 284 284 286 285 288 288 285 287 287 283 282 286 287 285 287 288 288 289 289 288 288 287 287 286 288 286 284 284 286 286 282 280 285 287 285 287 289 290 291 292 292 293 293 293 292 288 286 285 284 284 284
286 285 285 289 284 286 287 287 287 287 287 289 287 290 288 289 287 289 288 286 289 287 293 286 288 285 286 287 287 283 285 283 284 283 281 281 280 282 281 284 286 286 286 284 285 287 285 282 286 286 285 286 287 287 288 287 287 287 287 287 287 287 286 287 286 287 286 285 286 286 286 285 288 289 288 286 285 285 286 288 287 285 284 283 283 283 282 282
279 283 281 288 287 284 284 285 285 284 283 287 284 287 289 288 287 290 290 290 285 287 290 287 283 285 284 284 284 283 284 285 283 281 284 282 280 284 281 283 283 284 285 283 285 286 286 280 287 283 281 281 284 286 287 286 285 284 285 286 286 286 286 287 287 287 287 286 286 286 286 285 287 281 284 284 283 283 283 283 283 282 281 281 281 281 281 281
286 289 290 283 280 281 281 280 282 283 283 284 283 285 288 288 288 288 285 288 288 287 286 282 284 283 284 284 284 283 286 283 283 282 283 283 277 282 281 279 286 280 282 282 285 284 284 280 284 282 278 278 283 283 284 285 285 284 283 285 285 285 283 285 284 286 285 284 285 285 283 282 279 282 280 281 281 280 279 280 281 280 280 280 280 280 280 280
283 284 290 287 279 283 279 280 279 280 277 283 285 285 285 284 284 286 282 288 288 287 284 283 283 283 281 283 281 285 286 284 285 286 286 287 287 284 285 284 284 282 281 281 283 281 282 281 279 279 276 275 281 283 282 282 280 277 278 282 284 286 287 287 287 287 287 287 283 280 276 277 279 281 278 278 280 279 280 280 281 280 280 280 280 280 280 280
Wind_Speed
11 12 13 13 13 13 13 13 13 13 13 12 12 12 12 12 12 12 12 11 11 11 11 12 12 12 11 9 9 8 7 0 0 0 1 10 6 5 7 5 11 11 9 5 5 5 1 1 2 3 2 1 1 0 1 0 1 1 1 2 3 5 3 5 5 7 1 1 4 4 1 3 4 3 1 1 2 2 2 3 5 4 4 0 2 2 2 6
12 12 12 13 13 13 13 13 13 13 14 14 13 13 13 13 13 13 13 12 12 12 11 11 11 11 10 9 7 6 4 1 1 1 12 3 4 4 7 7 11 11 9 5 6 4 5 1 1 2 3 1 1 0 1 1 1 3 1 2 8 5 7 6 4 5 0 6 3 4 2 3 8 0 2 1 4 2 6 4 2 5 8 1 3 2 6 8
11 11 12 12 13 13 13 13 14 14 14 14 14 14 14 14 14 13 14 13 13 13 12 13 12 12 10 8 7 4 1 1 1 3 5 2 3 4 7 9 13 13 6 4 4 8 5 8 6 4 2 1 2 2 1 1 2 3 4 5 7 7 5 5 4 5 7 2 8 7 3 4 4 1 0 3 10 3 9 6 2 6 11 11 2 2 5 8
11 11 12 12 13 13 13 14 14 14 14 14 14 14 15 14 14 14 13 13 13 13 13 13 12 11 11 9 7 1 0 1 0 2 3 5 2 5 6 10 12 8 3 4 6 5 4 8 5 5 2 0 3 0 1 3 2 2 2 5 6 3 2 7 8 11 10 3 4 3 0 3 5 6 2 4 6 12 10 7 10 12 13 13 6 6 7 9
10 11 11 12 12 13 13 13 14 14 14 14 15 15 14 14 14 14 13 13 13 13 13 13 13 12 10 8 7 1 2 3 1 2 2 1 3 6 7 9 9 4 3 6 7 4 4 5 4 1 2 2 1 1 4 2 2 4 10 6 6 1 1 11 6 6 3 3 3 2 5 7 1 1 4 5 9 16 5 7 12 13 12 9 8 11 8 11
9 10 11 12 13 13 13 14 14 14 14 14 14 15 15 15 14 14 14 13 13 13 13 13 12 12 10 7 1 1 2 2 1 1 3 3 5 6 8 8 9 5 6 4 3 3 4 1 4 1 1 1 4 6 3 3 3 5 4 6 6 6 6 2 1 4 3 2 2 5 4 3 4 8 4 5 14 18 10 4 9 11 12 9 5 8 9 11
6 9 9 11 12 14 15 14 15 15 15 15 14 14 14 14 14 14 14 14 14 14 13 13 12 12 12 3 0 3 2 6 2 5 6 4 5 7 8 8 8 5 5 4 2 3 2 2 2 3 2 0 4 4 5 2 1 4 8 0 6 6 12 10 8 6 5 4 7 3 4 5 7 13 1 6 16 17 15 4 7 8 5 2 7 13 16 18
7 8 8 10 11 12 15 15 16 16 17 17 16 15 14 14 14 14 14 14 14 14 13 13 12 11 8 1 1 2 2 5 6 1 4 6 7 8 9 5 5 5 5 8 7 4 4 5 6 2 1 5 3 5 1 1 1 5 8 4 6 2 7 8 6 6 6 9 7 3 5 15 8 10 5 15 18 16 15 7 10 8 4 5 7 12 13 13
7 8 9 9 10 10 14 16 16 17 17 18 17 17 16 14 14 13 13 14 14 14 13 12 11 10 4 2 2 2 5 5 5 5 5 7 6 7 7 3 2 6 3 2 4 6 6 6 4 5 6 1 2 2 2 1 8 6 12 2 4 5 6 6 5 6 6 5 3 3 13 14 11 6 12 23 24 15 9 7 10 7 6 8 11 12 13 14
9 11 10 11 11 12 16 16 17 18 18 19 18 18 18 19 17 16 15 14 13 13 13 11 10 10 2 2 1 3 6 5 1 5 6 8 7 8 2 2 6 5 4 2 3 5 6 5 8 6 2 1 3 4 1 6 6 3 4 4 6 8 7 6 5 3 4 4 5 6 11 16 1 4 14 8 9 6 2 5 5 5 9 10 9 9 11 13
11 12 12 12 12 14 17 17 17 18 19 20 20 20 20 19 19 17 16 15 13 13 12 11 7 4 1 2 3 9 5 5 2 5 7 8 9 8 7 5 5 5 3 1 5 5 2 5 3 3 0 5 3 3 2 4 1 1 1 6 7 5 7 10 6 10 1 7 9 10 12 12 4 2 16 21 8 3 4 8 5 5 9 9 9 9 9 11
12 12 13 14 14 16 17 17 18 19 20 21 21 21 21 20 19 18 16 15 14 11 10 10 7 1 0 2 7 9 3 3 4 4 6 8 5 7 5 7 6 5 6 4 4 3 5 3 4 2 4 1 2 0 3 3 1 1 2 7 10 6 10 16 7 7 8 8 5 7 2 8 4 9 21 18 15 3 6 12 12 8 9 9 7 9 8 14
10 12 13 14 15 16 17 18 18 19 20 21 22 22 22 20 20 18 17 15 10 11 9 5 4 0 0 5 10 8 1 1 4 6 3 1 4 3 3 4 6 4 5 4 1 3 5 6 3 2 3 1 1 1 1 2 2 2 1 0 11 8 9 13 3 2 5 4 7 5 7 5 15 18 16 15 9 3 5 11 13 10 9 9 8 9 11 11
9 10 12 12 13 16 16 17 18 19 20 21 21 22 21 22 19 18 16 15 13 8 7 2 2 1 1 7 6 2 1 3 6 3 4 3 4 0 3 4 4 2 0 3 2 2 4 1 5 3 1 3 4 2 2 4 3 4 3 1 5 7 10 5 2 1 1 4 8 4 9 9 14 21 15 9 5 6 9 12 12 11 10 9 8 9 11 13
9 9 9 12 14 14 15 17 18 19 20 21 22 22 22 23 20 18 16 11 6 3 2 4 1 2 1 9 4 5 3 2 2 6 6 7 5 1 2 2 3 2 2 4 3 1 2 5 3 0 3 0 1 3 6 2 3 2 3 6 3 6 7 16 9 6 10 2 3 6 10 13 13 20 18 2 0 4 8 11 11 10 10 11 9 8 11 14
9 8 8 13 14 14 14 15 17 18 20 21 21 23 22 20 19 15 9 6 6 3 1 0 0 2 2 7 1 2 1 2 6 4 4 7 7 4 3 5 2 3 2 2 3 3 2 2 1 3 2 2 2 5 3 5 5 3 5 5 8 2 7 8 14 4 11 3 1 10 13 3 7 16 16 4 4 4 7 10 11 12 12 12 11 11 10 11
7 9 13 12 13 14 14 15 17 18 20 20 23 21 19 16 12 6 1 4 3 3 1 0 1 0 2 3 1 1 6 5 2 2 2 0 5 7 7 5 1 4 4 4 3 2 3 2 1 2 2 4 3 6 1 4 10 7 1 6 5 8 4 6 10 11 3 7 4 7 7 13 14 11 14 13 4 2 6 12 13 12 11 11 10 11 12 12
11 13 13 13 14 15 15 16 17 19 19 20 21 17 14 14 4 9 8 5 2 3 1 1 2 1 10 2 7 8 0 2 1 3 4 0 5 6 5 3 2 6 4 2 2 4 2 1 3 6 2 1 3 5 7 9 11 7 4 4 8 5 8 13 1 5 1 3 7 2 11 16 15 13 13 18 15 7 10 14 14 12 11 11 11 12 13 13
12 12 13 13 14 15 15 16 18 19 19 22 18 13 5 3 2 2 5 1 3 1 1 2 4 5 7 5 8 6 1 1 1 2 1 5 1 3 4 4 6 8 2 2 3 4 2 4 3 1 8 9 9 10 13 17 10 12 10 10 5 8 8 7 12 14 9 14 5 7 15 16 14 14 15 16 18 14 16 15 13 12 13 14 15 16 14 15
10 12 12 13 14 15 16 17 18 20 21 15 8 5 1 3 2 0 4 1 3 5 1 4 7 3 6 5 1 1 1 2 2 3 2 1 9 5 3 3 3 5 6 6 1 4 3 7 9 9 15 16 8 15 18 20 12 2 2 3 11 11 10 9 13 14 1 5 11 16 19 18 17 16 17 16 15 17 18 18 16 14 13 14 17 17 17 16
8 9 12 13 13 14 15 16 17 18 20 8 4 3 3 0 1 4 5 9 8 5 5 5 13 8 8 1 2 0 0 1 2 0 3 2 3 10 3 3 4 3 5 3 7 1 2 8 8 16 21 15 11 16 14 7 2 7 7 6 12 5 14 16 15 8 0 4 2 7 15 18 17 15 14 15 11 18 22 22 18 17 15 16 18 20 19 19
9 9 8 8 10 13 14 15 17 17 15 2 5 4 1 1 0 1 1 6 5 6 7 13 1 6 7 11 5 4 4 2 1 2 1 2 4 7 3 5 6 12 2 4 1 1 6 11 15 21 16 1 2 3 5 8 9 6 9 8 8 9 16 12 12 15 7 1 14 12 18 17 14 15 15 16 19 17 18 20 18 16 16 16 16 18 20 16
8 7 7 8 10 11 12 14 14 13 4 4 3 2 0 0 1 0 1 1 8 3 3 6 5 9 12 9 3 6 6 9 11 3 6 4 2 5 5 5 7 2 3 5 12 6 4 6 21 18 1 4 4 2 3 1 4 6 7 4 12 10 4 11 3 1 1 4 8 7 19 18 13 16 21 20 20 16 15 20 20 17 17 21 21 20 17 17
9 9 8 7 9 10 12 13 13 3 3 2 3 1 0 2 3 1 0 3 5 7 8 6 4 4 11 8 3 9 10 4 3 7 3 6 9 3 5 6 4 4 10 14 17 14 16 6 8 5 3 6 10 6 4 5 12 7 11 7 10 13 15 12 5 6 5 5 4 10 15 17 11 14 11 15 16 15 14 18 17 18 17 21 18 13 15 18
9 8 7 7 6 9 10 13 3 1 1 0 0 2 2 2 3 1 1 5 2 5 2 3 4 5 6 3 2 4 3 1 7 1 5 9 6 3 4 2 4 11 12 13 9 8 10 8 2 5 7 6 6 6 7 8 14 8 5 12 21 17 12 8 8 6 5 7 3 3 11 16 6 13 15 10 3 7 14 13 19 23 20 17 13 17 17 15
9 8 8 6 4 6 9 4 1 0 0 0 1 1 3 4 3 1 1 1 7 5 3 4 3 2 2 0 2 4 4 4 2 4 5 4 2 4 2 2 4 10 8 4 9 5 7 6 6 8 7 7 5 7 8 9 15 7 8 14 17 12 9 8 11 4 5 3 2 1 1 21 3 7 9 7 6 12 10 9 18 19 16 10 11 12 14 15
10 9 8 7 4 3 3 1 0 0 2 1 1 1 3 4 2 1 2 3 4 4 4 2 1 2 1 0 3 4 1 4 1 4 2 3 6 0 4 6 1 1 2 2 2 7 3 3 6 4 5 6 5 6 11 13 9 9 2 5 6 7 8 9 5 6 8 1 5 1 4 5 25 2 11 13 10 12 11 13 17 16 13 10 9 11 14 14
11 10 9 8 8 5 2 1 4 2 2 1 3 4 3 4 3 1 2 5 4 1 1 2 1 1 0 1 2 2 1 0 1 0 1 2 1 1 3 5 9 5 2 5 12 1 7 3 5 4 4 5 9 18 2 12 7 5 2 4 4 7 7 2 5 5 3 3 9 3 2 4 11 5 2 3 4 8 13 16 16 14 13 12 12 13 16 14
10 10 9 8 9 9 1 0 1 2 1 3 4 4 4 3 0 3 2 4 3 1 2 2 3 0 1 1 2 1 1 2 0 1 3 1 3 1 2 5 3 2 3 8 14 2 2 2 7 9 8 9 9 1 7 11 6 3 5 7 5 5 4 2 3 3 1 1 11 8 7 5 20 13 4 3 1 7 11 15 14 11 9 10 11 11 11 10
10 10 9 6 4 2 1 2 5 1 4 4 4 4 4 2 0 0 1 7 2 2 1 1 1 2 2 4 1 2 1 2 2 1 3 2 2 2 0 1 2 2 6 3 6 7 3 2 5 5 8 5 2 0 3 7 4 3 2 2 3 6 3 2 5 2 4 7 11 16 13 8 14 4 8 7 7 9 10 4 6 6 7 12 12 11 11 11
10 10 9 9 4 4 4 3 6 7 6 4 4 3 1 2 2 3 11 3 3 4 1 1 1 3 3 2 1 1 0 1 0 1 0 1 1 2 1 1 3 2 1 3 9 8 4 1 2 4 4 4 4 2 3 1 1 3 2 2 4 5 6 1 4 3 3 13 4 15 15 13 13 2 4 5 4 4 6 7 7 5 7 9 9 9 9 8
9 8 9 8 3 6 5 2 1 6 5 4 3 1 1 3 2 9 7 3 1 2 1 1 0 2 1 1 2 1 3 0 1 3 5 3 4 5 6 8 4 1 5 3 8 3 4 10 4 2 4 11 3 3 1 2 2 3 3 1 1 5 6 3 2 1 5 13 1 1 7 2 20 13 3 5 9 5 7 8 8 6 7 8 8 12 10 7
8 7 7 8 6 4 3 4 6 6 6 3 2 1 2 3 9 6 3 1 3 2 2 2 1 1 2 2 3 2 1 2 1 1 4 0 3 6 3 5 4 5 9 1 3 4 8 1 2 5 1 6 9 7 1 1 5 7 7 6 5 4 4 5 5 3 6 7 2 5 4 11 12 8 11 16 17 17 9 8 7 7 8 9 11 9 11 12
8 6 2 5 8 7 4 7 6 7 5 2 4 2 5 4 9 3 4 6 7 2 2 0 1 2 2 5 3 4 2 3 4 2 3 1 1 3 4 5 4 4 2 1 3 2 8 9 5 6 5 5 12 12 15 10 10 14 4 13 12 10 5 4 5 12 11 9 3 3 4 8 2 6 2 12 5 3 3 6 7 6 6 5 6 8 9 8
9 5 3 1 5 6 6 7 9 7 6 3 0 3 6 12 2 2 2 3 3 3 4 1 1 1 4 1 2 3 6 3 2 4 3 5 5 4 6 6 7 3 1 2 3 2 9 12 7 8 0 7 12 10 4 4 2 3 3 3 1 11 6 11 9 6 9 6 3 3 8 3 7 1 4 4 6 6 5 5 1 6 3 4 6 6 7 7
4 1 1 2 3 5 7 7 7 7 6 3 4 5 14 7 3 2 3 3 0 1 3 5 1 1 4 2 2 2 4 4 2 2 2 4 2 4 3 3 7 15 9 9 5 3 1 6 1 1 6 4 3 4 3 5 5 3 6 6 11 2 5 6 6 3 1 1 15 4 7 10 6 15 10 8 10 11 8 7 5 5 4 3 4 6 7 7
5 4 3 3 4 4 9 8 8 8 6 6 4 11 9 3 4 2 2 1 0 2 2 3 3 5 1 4 3 0 2 2 3 3 5 1 5 7 3 6 5 8 14 10 5 5 8 11 1 5 3 0 1 1 1 2 3 8 2 7 1 2 3 3 6 2 6 12 12 7 18 13 3 14 2 3 3 2 1 3 3 4 4 4 5 5 7 8
4 3 6 7 6 6 9 9 9 5 5 7 12 15 3 4 2 4 2 2 0 2 0 3 5 3 4 3 4 2 1 4 2 3 3 4 4 4 3 2 4 10 15 8 4 4 1 8 7 1 4 3 2 0 5 1 0 5 6 1 2 4 5 2 4 7 8 12 9 9 14 18 13 17 6 4 6 5 6 3 1 3 5 6 7 10 7 5
2 2 5 5 8 11 10 11 9 9 4 5 9 14 3 9 4 4 6 4 1 2 3 4 4 3 4 4 2 1 4 3 2 2 2 3 4 3 2 2 1 5 3 4 3 3 1 7 6 1 3 1 2 3 5 3 1 1 1 2 1 1 4 4 7 2 1 13 8 13 12 14 7 12 8 6 8 7 10 5 5 6 6 5 7 7 10 12
1 1 6 2 1 10 11 11 7 7 6 14 11 11 2 1 3 4 5 10 4 5 5 7 6 10 6 9 6 8 3 4 5 6 5 4 6 3 2 1 2 1 3 3 5 0 5 1 11 5 1 3 3 4 7 6 5 3 2 7 1 3 2 1 1 3 7 10 10 10 12 9 10 8 10 7 6 8 7 8 7 7 5 6 8 9 8 8
1 2 4 2 6 10 11 7 5 10 10 6 9 9 6 6 0 2 7 7 3 3 4 3 4 8 5 5 8 4 3 5 5 7 4 4 8 9 6 8 4 4 4 3 1 2 2 2 10 3 9 10 12 5 9 8 8 7 11 10 13 9 6 9 14 4 4 7 12 11 19 6 5 7 18 16 5 5 8 7 6 8 9 9 7 6 6 7
3 5 3 3 8 13 11 10 5 3 3 10 11 6 7 6 7 6 2 2 5 4 2 3 5 7 6 10 9 3 2 4 7 7 4 13 6 13 3 3 8 5 6 5 8 6 7 4 4 10 13 17 15 7 3 4 2 1 3 3 4 4 3 6 14 12 10 10 6 13 13 13 4 7 13 16 9 5 5 4 6 8 9 8 8 7 7 7
4 6 2 2 8 13 9 9 8 6 8 3 2 4 1 3 3 2 4 3 4 4 3 4 7 6 8 9 4 9 7 8 7 10 5 5 11 12 7 8 4 3 1 3 0 2 6 2 1 8 6 8 12 10 5 4 4 4 3 6 4 8 12 14 11 4 7 6 9 10 13 5 12 10 13 13 16 19 16 12 13 9 6 7 8 9 9 10
3 3 3 0 6 3 8 11 10 12 8 5 7 7 2 3 3 5 5 4 5 3 8 5 3 9 8 5 5 9 5 9 8 17 10 8 7 8 11 7 7 4 5 5 3 3 3 4 5 7 6 6 7 3 8 0 3 6 10 10 13 11 7 9 7 2 10 10 13 14 18 5 2 4 7 8 11 16 21 23 18 14 13 10 6 8 8 9
4 3 5 3 2 2 8 5 9 6 8 10 10 13 10 5 6 12 9 5 3 5 0 3 7 1 4 2 7 6 3 11 7 4 5 1 5 2 6 6 7 10 7 2 4 1 9 6 3 11 13 13 13 15 10 7 10 7 4 11 10 12 16 11 11 11 17 9 16 16 14 10 8 6 8 13 14 18 20 24 25 22 16 12 12 7 6 8
2 3 2 2 3 5 6 6 6 5 5 8 9 10 10 13 5 4 8 10 11 5 8 4 3 1 3 1 4 5 9 6 11 1 3 2 2 2 2 8 4 2 7 6 4 1 2 3 9 12 14 16 15 14 5 2 1 3 4 8 11 12 15 14 13 13 17 14 17 15 16 18 14 10 13 17 17 19 21 22 25 25 23 16 8 11 11 10
2 1 2 2 2 7 9 5 5 7 9 4 8 2 14 12 9 4 8 5 6 11 5 8 5 8 2 6 8 11 11 11 8 11 10 13 1 3 6 4 4 11 9 5 7 4 2 6 10 13 16 16 17 17 17 15 18 14 14 14 9 9 8 14 14 20 14 16 22 10 16 20 15 13 16 18 18 17 17 17 19 19 18 16 16 12 15 16
2 4 1 2 3 3 6 9 4 6 5 7 9 2 10 8 6 7 1 3 1 2 5 2 9 13 14 12 4 8 2 9 5 10 2 3 4 8 8 6 4 5 11 4 4 1 2 5 4 9 17 14 17 17 18 19 17 16 17 17 18 19 19 20 20 22 17 17 22 14 16 21 18 14 15 15 13 14 13 14 14 16 17 14 13 15 13 14
1 2 3 3 0 4 2 4 7 4 4 6 3 4 10 14 14 5 2 3 1 2 9 10 3 5 6 6 2 3 2 7 7 3 2 4 4 4 5 4 0 6 9 7 7 1 2 5 7 11 15 12 15 15 17 18 20 17 20 17 20 19 23 23 25 21 22 24 21 21 21 24 20 17 15 14 14 13 12 14 15 17 14 14 13 12 12 11
3 0 3 3 2 5 5 3 2 5 6 5 3 6 6 6 10 8 2 3 4 3 2 1 5 3 3 4 1 1 4 3 2 5 2 4 5 3 1 4 7 4 5 6 4 4 2 5 12 9 11 9 11 11 12 13 15 17 18 17 19 17 20 20 20 18 19 24 22 27 23 21 7 11 9 13 13 13 16 18 13 12 15 15 14 13 12 11
2 1 2 5 6 3 0 1 3 5 5 3 6 2 8 6 8 1 2 1 2 2 4 4 5 2 0 2 1 2 2 3 2 2 3 1 2 3 4 5 5 10 12 4 1 2 4 5 5 7 10 9 6 10 10 11 11 13 14 15 18 18 18 13 15 16 14 17 17 19 17 9 10 13 9 11 15 16 13 13 10 12 12 13 14 14 12 12
1 2 1 1 5 4 2 3 2 3 7 4 2 3 2 4 7 7 3 2 7 10 9 6 4 5 3 2 4 3 4 1 3 6 6 7 7 9 9 11 9 7 3 8 4 6 3 5 6 7 12 11 9 11 10 12 15 16 17 18 18 15 15 16 16 18 17 9 11 6 2 3 5 8 12 14 13 14 13 12 7 10 11 10 12 12 12 12
Wind_Direction
17 14 11 8 6 4 2 1 359 358 357 356 355 355 355 356 354 352 351 346 342 342 342 339 343 344 336 333 336 340 340 41 38 343 163 239 201 188 181 94 143 130 133 93 87 105 43 27 117 353 45 56 294 59 259 50 113 56 167 123 265 205 161 213 197 191 226 256 286 332 209 175 294 309 263 26 287 229 279 260 289 291 259 188 266 330 128 139
14 12 8 6 4 1 359 356 355 353 350 350 350 350 352 352 352 349 348 345 342 339 339 338 339 342 337 330 338 351 27 79 219 202 228 240 324 198 178 142 139 140 115 106 145 141 125 222 182 70 95 154 325 172 33 224 123 138 130 119 237 188 239 164 204 226 174 261 236 277 301 182 242 108 298 272 275 265 271 260 303 285 284 268 16 86 135 147
11 7 5 3 1 358 356 354 351 349 347 346 347 347 348 348 349 349 346 344 342 340 337 335 338 341 337 335 328 13 29 10 10 273 260 17 276 213 167 151 150 159 147 154 191 154 161 190 167 104 15 108 355 201 45 252 142 226 128 236 246 211 239 224 212 243 205 255 306 297 301 160 248 177 286 223 260 292 249 247 279 248 252 246 188 154 161 168
8 4 0 359 356 354 351 350 348 347 345 344 343 345 345 344 344 346 344 340 339 338 337 336 335 337 335 331 338 326 72 50 329 246 275 262 253 147 148 149 156 146 88 69 154 130 101 89 96 104 88 153 293 52 182 239 131 253 120 212 232 214 199 262 205 238 255 229 256 258 355 315 271 225 155 233 321 262 245 220 214 223 231 245 189 185 177 178
0 358 354 351 352 350 346 346 344 344 343 342 342 342 342 340 341 341 340 336 335 336 337 333 335 334 334 335 337 105 35 51 254 225 248 183 132 128 123 128 137 92 94 132 88 66 75 104 108 56 90 216 338 37 246 236 196 116 210 222 211 120 212 251 236 226 220 182 227 285 324 265 309 292 225 211 232 269 231 226 215 228 231 227 182 200 183 187
353 351 349 347 346 345 342 340 342 340 339 340 339 339 338 338 339 337 335 335 331 332 333 333 333 333 332 336 48 75 59 337 242 276 133 156 122 110 110 116 117 104 99 93 106 107 115 39 92 121 264 111 199 175 261 184 143 239 267 255 230 217 238 256 214 210 185 258 235 297 250 326 267 275 216 188 223 257 253 208 207 223 228 227 174 154 189 194
333 343 338 339 341 341 340 339 337 337 337 335 335 335 334 337 334 334 331 331 329 328 332 331 330 334 327 350 74 84 127 256 341 257 141 132 123 113 104 106 105 98 109 122 109 139 171 115 142 210 107 341 282 203 251 166 247 233 258 222 274 208 231 253 262 280 274 273 263 218 345 289 284 293 155 201 243 247 267 236 243 236 251 130 153 182 190 195
331 334 332 332 335 336 337 336 336 335 334 333 331 330 331 330 331 328 327 325 326 325 326 329 330 325 347 70 344 359 36 253 247 308 173 114 91 103 98 71 106 109 135 177 161 163 130 147 184 132 204 193 228 161 252 149 140 210 267 218 267 223 244 260 261 275 268 264 266 310 286 261 234 251 351 270 263 259 264 249 253 247 211 181 194 196 203 205
328 330 328 327 330 333 335 334 334 334 331 329 328 326 325 325 325 325 322 323 324 320 318 324 325 329 306 79 117 336 266 238 225 188 150 122 112 100 133 136 118 141 165 141 198 172 143 240 191 179 249 228 188 191 255 197 289 210 236 236 274 264 275 264 290 241 238 264 184 283 263 268 264 289 266 258 268 269 270 247 244 241 220 208 213 204 200 208
328 329 328 329 333 335 334 332 332 332 330 327 324 324 323 325 325 325 323 322 319 316 313 317 326 323 354 89 53 274 260 212 225 154 141 128 114 104 128 123 148 136 131 210 105 135 183 212 181 210 156 248 152 219 112 151 236 170 229 238 261 273 306 278 218 261 199 221 169 201 265 270 315 137 278 261 242 271 298 255 273 217 232 227 222 217 213 211
323 326 328 330 333 331 331 331 330 329 328 326 324 322 323 322 322 322 323 320 319 306 309 308 322 351 235 139 199 248 227 103 178 147 145 139 125 137 195 153 166 148 133 89 193 195 197 155 181 108 93 221 127 275 169 224 165 291 248 309 291 304 275 265 249 264 175 278 192 206 247 272 295 182 250 270 263 65 317 286 270 236 240 240 229 223 220 221
318 322 324 325 327 328 328 328 328 327 327 326 323 321 319 318 317 318 318 319 313 307 304 310 292 187 63 108 216 228 206 189 136 154 151 145 150 193 171 162 164 160 166 181 240 238 172 176 136 131 220 90 270 17 260 240 31 293 7 321 296 331 326 281 276 257 157 253 150 164 242 293 259 220 245 248 269 281 275 280 277 245 247 245 239 232 223 224
311 317 318 320 323 324 325 324 325 326 325 324 321 318 315 314 312 313 313 313 308 303 300 311 71 26 78 293 232 232 321 161 129 125 113 114 97 67 129 155 158 153 172 163 193 224 190 149 151 170 225 149 189 242 142 63 316 333 47 103 316 321 309 292 113 19 149 252 137 141 281 205 263 255 251 261 266 274 281 266 268 267 249 249 236 232 237 238
299 303 306 311 318 321 321 322 322 323 324 321 318 315 312 310 306 305 306 303 301 298 302 32 99 119 111 246 267 259 277 119 108 121 183 158 148 189 72 56 99 108 271 123 181 148 133 165 137 182 107 179 256 276 30 340 16 266 259 79 250 345 269 280 71 159 227 209 172 146 250 261 268 273 266 256 243 227 248 257 264 268 269 258 242 234 237 244
287 289 290 311 318 317 318 319 320 322 320 318 314 312 310 305 301 302 301 298 293 295 186 100 43 89 120 267 246 296 142 107 175 223 163 142 148 93 145 119 66 46 135 124 158 163 130 112 88 163 252 303 43 334 307 13 346 318 5 267 327 207 279 295 296 196 244 310 185 121 260 246 249 268 276 267 163 188 234 255 264 267 267 267 265 245 243 243
287 299 320 313 312 314 316 318 320 320 319 312 311 310 305 300 299 301 296 273 251 198 118 96 273 107 65 294 245 79 67 205 254 214 212 146 164 176 160 126 125 48 81 8 68 97 45 99 162 195 283 340 163 90 40 4 317 342 203 272 267 218 260 342 284 184 224 187 278 179 248 275 287 259 276 284 249 207 247 261 263 265 265 268 267 266 258 265
306 314 305 306 310 313 316 319 320 319 316 311 311 309 303 303 307 301 13 98 84 117 153 150 102 105 207 241 152 254 232 233 195 43 91 141 146 147 114 94 104 84 60 55 31 86 347 116 306 21 33 209 134 106 40 325 277 269 116 221 207 240 273 261 304 286 198 176 209 238 240 243 257 272 286 293 244 217 237 258 260 261 263 263 270 270 268 264
308 306 307 308 312 315 317 319 320 319 317 311 314 308 308 319 43 97 56 47 70 134 207 147 134 47 271 342 269 244 354 223 55 127 75 310 118 120 108 108 66 101 91 42 358 149 296 162 42 199 334 226 119 113 156 234 223 227 230 237 274 251 234 253 302 265 69 175 212 275 250 260 266 277 282 277 285 259 253 257 258 262 265 265 260 261 263 264
304 305 308 311 313 315 318 319 320 321 319 316 313 301 313 30 22 92 81 12 91 26 24 222 132 176 227 228 270 343 222 175 127 106 160 116 53 100 69 82 108 118 140 96 259 140 352 68 32 94 248 227 200 169 190 226 227 227 223 242 254 260 243 225 237 260 263 277 266 222 253 259 260 265 266 272 275 273 267 262 263 259 259 265 262 259 256 257
289 303 304 309 312 315 319 320 320 324 323 327 346 4 11 18 3 346 348 11 233 188 179 209 227 305 329 291 238 303 102 28 108 342 120 289 121 118 59 97 38 55 119 189 189 206 142 155 175 193 227 229 189 189 210 225 232 250 205 221 248 254 269 264 260 258 215 314 248 261 261 263 262 257 262 264 275 282 274 270 264 260 258 256 261 258 254 252
261 275 300 308 310 315 317 318 320 323 321 325 322 51 67 217 349 303 313 254 246 251 241 232 207 225 237 330 293 112 253 297 68 217 195 137 107 124 210 94 140 161 220 163 149 274 102 194 209 216 230 228 189 205 221 248 285 231 256 253 259 226 270 247 265 270 294 197 272 221 263 265 265 264 260 265 260 262 268 269 267 263 257 255 257 263 257 251
266 265 269 282 306 311 313 316 318 324 320 35 46 75 176 215 153 208 111 305 321 255 241 250 178 269 270 249 214 150 69 310 252 217 256 137 178 151 246 139 167 202 100 106 28 126 205 201 219 227 235 25 216 188 200 209 234 243 230 250 283 257 256 277 268 269 263 182 272 266 262 261 262 260 258 252 251 245 252 260 262 264 263 257 255 256 262 263
261 271 275 293 300 306 311 314 316 328 356 27 40 67 167 244 78 14 81 226 262 261 243 249 225 228 259 263 231 127 232 229 251 194 194 137 85 221 146 148 201 91 141 167 198 179 248 255 235 237 270 247 277 178 135 189 230 220 238 251 246 256 282 287 228 352 342 195 294 288 286 277 257 254 252 246 247 245 245 255 259 253 255 257 253 252 261 269
244 250 260 265 294 308 312 316 315 352 20 126 106 100 245 95 100 70 63 244 278 302 220 228 196 197 224 231 213 171 204 245 174 251 190 138 156 181 127 176 129 147 198 206 213 207 219 225 242 243 191 196 235 234 200 246 259 209 221 233 262 254 240 236 272 344 314 281 269 305 289 276 217 239 247 255 238 249 250 257 263 261 250 251 259 275 263 261
234 240 250 267 279 312 314 318 14 337 136 66 354 249 132 119 106 145 46 316 334 275 284 302 180 246 231 41 102 124 233 295 216 141 188 151 141 88 223 170 125 219 210 213 241 265 269 262 162 156 211 215 218 250 222 215 263 241 217 207 237 249 276 271 285 356 6 318 329 33 328 297 177 203 222 232 262 235 244 240 252 255 253 257 265 259 266 260
243 239 239 238 258 312 312 335 296 170 53 216 202 150 125 106 94 55 94 32 287 264 355 238 141 286 101 212 118 177 98 246 268 220 161 221 142 153 83 212 167 241 208 214 224 222 224 233 176 206 194 209 191 222 229 177 247 267 262 207 237 251 253 266 279 357 288 243 303 32 122 294 231 202 219 236 221 240 251 222 245 254 257 261 256 259 260 260
240 236 235 222 207 310 11 254 279 216 8 339 207 114 133 109 176 88 5 310 310 216 166 270 61 239 88 263 149 122 130 265 290 28 58 342 182 257 161 218 350 313 156 158 16 265 186 272 193 211 188 184 191 250 235 180 234 266 235 174 204 226 233 243 227 200 247 267 299 190 146 225 297 309 202 209 208 231 249 254 249 252 259 260 262 267 268 267
249 245 234 217 199 167 177 9 358 334 248 129 119 118 114 127 95 108 72 323 284 313 139 247 224 335 85 311 97 155 198 89 43 270 229 285 106 338 183 201 199 175 186 103 238 244 168 224 172 171 171 171 204 224 89 156 180 223 279 169 197 205 215 175 183 199 223 21 299 195 77 296 257 280 352 144 203 252 248 246 252 256 257 258 253 251 258 263
254 250 240 220 190 194 121 194 141 242 192 141 124 113 110 129 112 86 107 247 247 77 296 83 302 35 348 20 168 87 294 17 153 287 315 18 20 139 222 231 181 207 254 181 243 240 296 201 202 174 154 213 226 233 160 163 202 268 125 87 84 77 72 126 130 158 304 335 259 176 171 223 277 282 145 13 183 242 242 243 245 254 274 274 267 264 268 279
261 254 243 212 141 113 67 100 220 176 133 132 129 124 130 148 51 34 299 242 12 298 114 243 103 229 64 131 260 355 292 334 105 336 25 149 327 27 335 156 155 226 252 278 256 238 229 325 158 126 199 217 142 51 166 190 186 125 76 61 2 33 21 20 64 82 10 256 257 171 196 165 272 292 166 136 201 212 231 272 266 255 251 271 270 259 266 264
267 252 246 169 172 194 126 227 222 151 147 134 125 135 237 44 148 156 241 212 12 239 34 15 223 23 106 130 227 323 135 329 331 87 78 345 352 41 344 304 45 36 11 309 277 269 237 125 175 249 111 74 107 104 32 36 147 147 219 118 21 319 13 27 342 36 191 270 219 179 181 180 229 265 286 240 270 259 214 221 254 259 256 262 280 284 269 272
342 288 235 179 190 145 170 239 61 127 131 124 94 80 122 254 45 214 229 10 278 278 136 245 6 122 90 29 122 203 179 316 214 149 180 185 153 163 200 195 158 247 304 218 259 27 263 211 208 92 224 153 138 134 306 23 86 120 98 108 226 272 28 309 21 296 190 235 232 203 146 358 241 249 256 283 270 282 242 215 222 234 264 273 285 284 283 283
332 320 268 210 160 194 224 114 126 124 113 91 63 43 119 145 245 216 251 31 265 122 269 99 203 138 156 69 266 237 220 197 228 197 114 334 154 251 264 198 195 179 254 287 283 344 273 323 131 218 58 222 144 180 217 290 210 135 157 163 134 252 244 254 266 245 291 290 233 157 177 240 280 291 209 240 243 236 221 228 234 231 253 268 271 295 319 319
325 316 274 191 198 198 152 138 128 132 107 100 110 69 75 206 237 56 179 203 230 13 66 123 73 51 147 200 242 158 279 228 138 221 151 200 119 256 279 248 162 269 173 332 263 205 308 297 241 142 236 181 182 195 194 199 163 198 143 158 193 185 159 224 207 243 241 251 8 277 124 234 98 243 240 218 269 323 249 227 234 255 260 292 303 289 288 296
310 289 243 234 211 208 153 148 152 132 117 99 100 194 195 236 235 182 242 275 292 316 289 62 72 71 289 266 285 254 206 296 129 103 180 144 230 195 198 208 222 129 110 223 248 75 209 240 259 201 225 147 182 223 194 88 67 205 157 55 38 232 138 232 223 242 272 289 298 210 216 203 232 53 285 260 280 285 262 251 319 285 292 269 291 292 294 298
330 294 202 230 191 201 159 161 151 137 133 144 133 222 228 209 232 162 238 163 306 213 313 335 116 252 258 294 305 222 322 190 297 123 261 199 229 219 225 217 182 188 171 193 187 221 281 271 262 183 52 185 187 21 216 148 224 239 100 199 221 58 159 264 297 264 64 8 253 228 289 272 310 277 269 261 246 251 270 293 313 296 285 335 286 278 276 284
348 313 259 199 211 178 160 150 151 138 159 178 195 234 222 281 191 155 283 169 259 141 64 246 263 209 225 242 235 7 268 71 257 140 259 175 299 206 215 252 183 198 207 178 279 205 246 276 166 121 241 312 194 304 329 345 135 99 193 235 44 134 114 186 234 350 242 242 254 240 263 270 298 279 17 12 35 292 296 294 278 292 309 294 265 277 287 290
317 289 267 244 217 155 149 151 125 131 167 197 220 237 105 215 240 178 185 154 238 34 122 173 271 130 263 232 284 168 248 148 260 114 258 184 261 149 118 246 218 187 215 237 206 289 67 285 277 23 156 273 351 75 323 296 194 197 190 293 163 255 265 257 91 245 239 245 260 226 261 270 258 260 264 291 286 276 276 264 307 247 244 271 303 301 287 262
287 296 290 250 196 158 151 150 143 141 127 232 228 249 178 232 159 191 186 163 157 128 241 226 215 257 206 230 221 230 189 196 170 180 254 238 210 190 170 196 326 205 284 177 250 250 87 257 277 270 103 318 12 109 231 229 358 111 25 314 146 104 213 160 195 210 215 262 258 252 227 253 249 265 268 248 237 254 259 247 239 252 262 256 271 297 324 339
315 273 252 288 67 136 146 146 143 155 181 216 224 234 123 224 239 242 228 188 230 183 236 236 195 249 224 246 238 249 258 211 190 233 168 263 243 236 199 198 167 20 196 199 220 4 274 219 261 247 141 20 287 182 226 202 213 205 194 236 242 198 219 110 289 175 219 255 241 269 252 238 241 285 276 237 212 233 209 201 235 250 270 309 324 320 325 315
227 235 266 75 131 136 138 140 160 194 212 236 247 250 250 254 188 274 235 242 252 254 225 194 169 224 236 272 254 204 251 225 210 233 187 248 210 274 209 207 155 200 86 33 67 248 250 213 242 294 300 259 255 198 194 203 201 204 193 217 214 213 253 254 254 175 210 221 244 235 250 223 255 282 277 278 210 223 221 213 266 308 313 303 282 284 277 286
201 229 264 114 146 145 139 181 218 193 219 214 223 205 247 215 257 240 220 260 210 247 21 238 230 246 249 253 259 229 186 223 223 234 214 237 203 224 261 172 180 166 153 188 203 211 166 196 187 229 229 247 257 262 176 186 129 148 167 268 203 214 209 240 260 235 236 235 260 258 277 239 211 241 261 282 272 218 220 236 272 272 275 273 275 279 279 264
225 232 350 159 180 159 162 213 205 214 221 246 3 282 225 278 203 229 205 196 218 197 249 221 223 240 232 245 221 246 219 252 185 235 223 241 241 222 218 182 153 42 272 295 271 254 78 204 229 269 300 293 285 272 231 202 261 324 276 226 240 233 208 227 243 300 277 267 244 257 241 270 179 226 272 277 287 296 288 265 263 262 234 239 267 280 280 286
295 291 319 294 235 206 182 201 213 220 228 253 240 249 194 228 220 252 211 209 181 186 215 222 293 223 253 208 228 244 178 269 192 232 243 230 258 195 230 208 168 233 152 247 225 241 282 223 180 270 271 275 263 308 286 256 118 213 240 226 226 246 273 267 274 30 277 242 259 261 262 254 300 249 267 298 294 285 286 291 288 281 281 281 246 246 258 269
320 271 231 271 246 226 221 214 235 227 230 239 238 243 246 248 205 234 237 227 199 209 287 260 229 113 250 198 258 262 247 237 294 262 263 232 255 310 327 295 250 230 227 279 312 123 230 228 188 250 257 262 269 264 258 248 230 223 234 246 232 218 231 247 254 239 250 228 226 245 259 247 246 278 281 273 278 280 282 284 288 288 286 290 300 304 328 357
262 283 264 196 242 246 264 275 273 249 249 251 251 242 244 250 247 232 199 242 209 224 230 267 302 326 223 301 264 246 253 219 230 275 224 304 273 356 28 345 41 347 335 3 45 61 290 326 234 241 244 251 254 265 254 284 355 214 248 216 240 230 234 234 251 255 253 264 250 244 258 271 257 247 252 256 259 264 270 278 284 292 300 302 320 33 38 37
293 279 261 280 242 232 253 227 222 231 242 241 250 160 242 239 253 277 171 256 212 218 237 217 224 241 226 227 243 259 246 260 242 251 247 253 342 288 319 23 8 20 356 48 10 84 162 236 247 263 255 257 265 269 279 279 276 273 271 262 247 238 229 231 233 249 255 270 262 252 263 266 262 255 254 259 258 261 266 273 281 292 308 349 39 32 26 20
165 250 12 263 298 234 231 247 310 275 290 241 253 264 264 264 245 246 257 249 228 199 211 344 232 227 245 249 253 252 209 255 243 260 281 25 353 328 346 341 62 3 44 8 345 35 262 250 245 245 260 262 263 269 270 274 267 270 263 265 261 261 258 253 250 251 253 250 265 268 262 267 273 270 264 263 285 299 312 326 346 6 19 24 29 35 25 16
154 307 281 297 5 266 314 320 333 294 296 273 299 251 251 248 256 251 227 320 0 272 205 235 176 73 75 40 58 274 36 261 261 61 53 9 359 301 352 328 235 41 20 1 344 222 280 253 243 253 275 274 274 271 272 269 275 271 269 262 260 254 256 254 260 260 257 261 267 275 272 270 275 305 339 1 21 21 10 9 21 23 11 9 15 18 18 10
296 256 307 359 275 293 295 292 307 320 309 292 291 198 244 246 264 264 267 195 257 288 299 65 71 83 81 80 113 154 286 290 267 264 42 24 337 24 306 281 308 343 2 345 321 289 264 287 357 335 309 293 289 282 276 273 271 274 275 278 275 267 264 262 268 277 278 272 271 268 274 277 9 8 357 2 10 11 18 14 15 7 5 3 4 4 5 4
228 90 309 329 310 256 153 332 234 281 275 235 240 302 256 255 258 52 257 270 190 291 30 71 14 90 150 107 102 267 236 131 48 138 287 26 267 322 340 278 336 315 314 303 191 308 343 286 303 289 293 283 275 282 283 290 284 285 287 287 280 276 273 270 260 258 266 276 280 285 283 303 359 346 350 9 11 14 6 353 10 3 -0 3 359 356 355 356
61 288 158 181 263 280 310 274 318 316 253 252 283 298 13 1 40 349 346 357 57 87 93 60 354 23 300 334 297 240 145 163 205 221 200 209 211 244 224 238 244 244 277 284 252 274 251 289 296 302 287 274 278 273 285 295 298 286 271 263 270 278 272 270 264 265 264 285 286 273 89 35 333 349 6 2 3 356 360 343 6 356 2 1 356 348 349 348